www.pogodaiklimat.ru

Погода и климат >> Архив погоды >> Россия >> город Севастополь >> Херсонесский Маяк


ПОГОДА в Херсонесском Маяке

  • Прогноз погоды в Херсонесском Маяке
  • Монитор погоды в Херсонесском Маяке

АРХИВ ПОГОДЫ в Херсонесском Маяке

Время (UTC), дата Ветер
(напр.,м/с)
 
Видим.   Явления Облачность Т
(С)
Тd
(С)
f
(%)
Тe
(С)
Тes
(С)
Комфортность P
(гПа)
Po
(гПа)
Тmin
(С)
Tmax
(С)
R
(мм)
R24
(мм)
S
(см)
03 17.02 В 2 20 км 10/10 600 м
[Sc]
+5.9 +2.8 80 +4 +4 1024.9 1024.2 +4.5
06 17.02 В 1 20 км 10/5 600 м
[Sc Ac As]
+6.0 +3.1 82 +5 +5 1025.1 1025.3 +4.8
09 17.02 З 2 20 км 10/10 600 м
[Sc]
+8.3 +5.2 81 +6 +6 1025.1 1025.3
12 17.02 З 3 20 км 9/9 600 м
[Sc]
+9.2 +6.0 80 +7 +7 1023.2 1022.7
15 17.02 З 2 10 км 6/6 600 м
[St]
+8.9 +6.6 85 +7 +7 1021.9 1021.3
18 17.02 Ю 1 10 км 9/9 600 м
[St]
+8.3 +6.6 89 +7 +7 1021.4 1020.7 +9.3
21 17.02 штиль 0 10 км ясно +6.5 +5.6 94 +5 +5 1020.9 1020.0
00 18.02 штиль 0 20 км 1/1 600 м
[Sc]
+5.7 +5.0 95 +5 +5 1019.6 1018.7
03 18.02 В 2 20 км ясно +5.8 +4.9 94 +3 +3 1018.7 1018.0 +5.4
06 18.02 СВ 3 20 км 9/9 600 м
[Sc]
+5.7 +4.3 91 +2 +2 1020.0 1020.0 +5.4
09 18.02 СВ 5 10 км 10/10 600 м
[Sc]
+7.2 +3.1 75 +3 +3 1021.4 1021.3
12 18.02 С 6 20 км 3/3 600 м
[Cu med, cong Ci fib]
+7.9 +2.4 68 +4 +5 1020.7 1020.0
15 18.02 С 6 20 км 1/0 600 м
[Ci fib]
+8.2 +1.4 62 +4 +4 1021.4 1021.3
18 18.02 В 3 20 км ясно +6.3 -0.5 62 +4 +4 1023.1 1022.7 +8.5
21 18.02 штиль 0 20 км ясно +3.8 -1.4 69 +3 +3 1023.8 1024.0
00 19.02 В 1 20 км ясно +2.0 -2.3 73 +1 +1 1024.5 1024.0
03 19.02 В 2 20 км ясно +0.6 -2.4 80 -3 -3 1025.1 1024.3 +0.5
06 19.02 В 2 20 км ясно -0.2 -2.9 82 -4 -2 1026.5 1026.7 -0.5
09 19.02 СЗ 2 20 км 1/1 600 м
[Cu hum]
+5.3 -2.8 56 +3 +10 1027.0 1026.7
12 19.02 С 3 20 км 6/6 600 м
[Cu hum]
+6.6 -0.1 62 +4 +6 1026.0 1025.3
15 19.02 ЮЗ 5 20 км ясно +6.7 -0.9 58 +3 +3 1025.6 1025.3
18 19.02 В 3 20 км ясно +2.6 -0.7 79 -1 -1 1025.2 1025.3 +8.5
21 19.02 штиль 0 20 км ясно +1.5 -1.6 80 +1 +1 1024.2 1024.0
00 20.02 В 1 20 км ясно +0.7 -1.9 83 -1 -1 1023.4 1022.7
03 20.02 В 2 20 км ясно -0.2 -2.3 86 -4 -4 1022.0 1021.2 -0.2
06 20.02 В 1 20 км 3/0
[Ci fib]
-0.1 -1.9 88 -2 -0 1021.3 1020.5 -0.5
09 20.02 ЮЗ 4 20 км 1/1 600 м
[Cu hum]
+7.1 +1.2 66 +4 +8 1020.1 1020.0
12 20.02 Ю 6 20 км 3/0 600 м
[Ci fib]
+8.4 +1.4 61 +5 +6 1018.0 1017.3
15 20.02 Ю 4 20 км 1/0
[Ci fib]
+7.6 +2.6 71 +4 +4 1017.4 1017.3
18 20.02 Ю 4 20 км ясно +6.6 +3.0 78 +3 +3 1017.4 1017.3 +8.8
21 20.02 Ю 2 20 км 10/10 600 м
[Sc]
+6.2 +3.6 83 +4 +4 1017.7 1017.3
00 21.02 В 2 20 км 9/9 600 м
[Sc]
+6.1 +3.5 83 +4 +4 1017.7 1017.3
03 21.02 СВ 4 20 км 9/9 600 м
[Sc]
+5.1 +3.4 89 +1 +1 1019.0 1018.3 +5.0
06 21.02 В 2 4000 м дымка 3/3 600 м
[Cu med, cong]
+4.0 +2.8 92 +1 +2 1021.0 1020.3 +3.8
09 21.02 З 1 10 км 3/3 600 м
[Cu hum]
+8.0 +4.5 79 +7 +13 1021.0 1020.0
12 21.02 СЗ 5 20 км 8/8 600 м
[Cu Sc]
+8.6 +3.8 72 +5 +6 1020.6 1020.0
15 21.02 СЗ 5 20 км 9/3 600 м
[Cu med, cong Cc]
+7.9 +2.8 70 +4 +4 1021.0 1020.0
18 21.02 СЗ 6 20 км 5/5 600 м
[Sc]
+8.7 +2.4 65 +5 +5 1021.6 1020.9 +9.1
21 21.02 СЗ 4 20 км 9/9 600 м
[Sc]
+8.6 +1.8 62 +6 +6 1020.8 1020.0
00 22.02 СЗ 5 20 км 10/10 600 м
[Cu Sc]
+8.4 +1.6 62 +5 +5 1020.4 1020.0
03 22.02 ЮЗ 2 20 км 10/10 600 м
[Cu Sc]
+7.6 +4.2 79 +6 +6 1018.7 1018.0 +5.8
06 22.02 ЮЗ 3 20 км 10/10 600 м
[Cu Sc]
+8.6 +5.5 81 +6 +6 1017.5 1017.3 +5.8
09 22.02 ЮЗ 5 10 км слаб. ливневой дождь 10/10 600 м
[Cb cap]
+9.0 +6.0 81 +6 +6 1015.8 1016.0
12 22.02 З 5
{10}
10 км {ливн. осадки} 10/10 600 м
[Cb cap]
+9.5 +6.4 81 +6 +6 1013.9 1013.2
15 22.02 В 1 10 км слаб. ливневой дождь 10/10 600 м
[Cb cap]
+7.0 +5.0 87 +6 +6 1013.6 1012.9 2
18 22.02 З 3 10 км слаб. ливневой дождь 10/10 600 м
[Cb cap]
+6.4 +4.8 89 +3 +3 1014.3 1013.6 +9.6 7
21 22.02 СВ 8-10
{13}
4000 м слаб. ливневой снег 10/10 600 м
[Cb cap]
+0.5 -0.6 92 -7 -7 1016.8 1016.1
00 23.02 СВ 7-10
{14}
4000 м слаб. ливневой снег 10/10 600 м
[Cb cap]
-1.1 -1.9 94 -9 -9 1018.4 1017.6
03 23.02 СВ 7
{12}
4000 м слаб. ливневой снег 10/10 600 м
[Cb cap]
-1.6 -2.1 96 -9 -9 1020.8 1020.0 -1.6 9
06 23.02 СВ 8-11
{14}
10 км {ливн. осадки} 10/10 600 м
[Cb cap]
-2.3 -3.2 94 -11 -11 1024.7 1023.9 -2.3 7 2
09 23.02 СВ 10-11
{14}
20 км 10/10 600 м
[Cu Sc]
-1.5 -3.2 88 -10 -10 1027.2 1026.7
12 23.02 СВ 9-10
{13}
20 км 10/10 600 м
[Cu Sc]
-0.5 -2.6 86 -9 -9 1028.7 1027.9
15 23.02 СВ 10-11
{13}
20 км 4/1 600 м
[Cu hum Ac trans Ci fib]
-1.3 -3.6 84 -10 -10 1030.5 1029.7 2
18 23.02 СВ 7
{12}
20 км 8/0
[Ac trans]
-2.5 -4.8 84 -10 -10 1032.7 1031.9 -0.3
21 23.02 СВ 7
{11}
2 балла 80 1033.3
00 24.02 СВ 6 9 баллов 80 1032.0

 

Местоположение метеостанции Херсонесский Маяк (город Севастополь, Россия): широта 44.58 долгота 33.38 высота над уровнем моря 4 м.

В архиве по умолчанию представлена погода в Херсонесском Маяке за последнюю неделю. Архивные данные за месяц целиком и за предыдущие месяцы, начиная с января 2011 года, Вы можете получить, выбрав интересующий диапазон дат из раскрывающегося списка и нажав кнопку "Ввод!".


*Определитесь, кто Вы:
робот инопланетянин человек

Внимание! Время в таблицах - всемирное. Для получения местного времени необходимо прибавить поправку, которая равна 3 ч.

Смотрите также архив погоды в соседних городах и на ближайших метеорологических станциях:

Погода в Севастополе (город Севастополь, Россия) (13 км)
Погода в Почтовом (Крым, Россия) (53 км)
Погода на Ай-Петри (Крым, Россия) (57 км)
Погода в Ялте (Крым, Россия) (64 км)
Погода в Евпатории (Крым, Россия) (67 км)
Погода в Симферополе (Крым, Россия) (68 км)
Погода в Никитском саду (Крым, Россия) (69 км)
Погода в Симферополе город (Крым, Россия) (71 км)
Погода на Ангарском Перевале (Крым, Россия) (79 км)
Погода в Алуште (Крым, Россия) (81 км)

Пояснения к столбцам:

Ветер - указаны скорость ветра в м/с - средняя за 10 мин, порывы в срок и между сроками (в фигурных скобках) и направление, откуда дует ветер: С - северный, СВ - северо-восточный, В - восточный, ЮВ - юго-восточный, Ю - южный, ЮЗ - юго-западный, З - западный, СЗ - северо-западный.
Видимость - горизонтальная дальность видимости в метрах или километрах. При видимости от 1 до 10 км при отсутствии осадков обычно наблюдается дымка, при ухудшении видимости до 1 км и менее - туман. В сухую погоду видимость может ухудшаться дымом, пылью или мглою.
Явления - указаны атмосферные явления, наблюдавшиеся в срок или в последний час перед сроком; фигурными скобками обозначены явления, наблюдавшиеся между сроками (за 1-3 часа до срока); квадратными скобками обозначены град или гололедные отложения с указанием их диаметра в мм.
Облачность - указаны через наклонную черту общая и нижняя облачность в баллах и высота нижней границы облаков в метрах; квадратными скобками обозначены формы облаков: Ci - перистые, Cs - перисто-слоистые, Cc - перисто-кучевые, Ac - высококучевые, As - высокослоистые, Sc - слоисто-кучевые, Ns - слоисто-дождевые, Cu - кучевые, Cb - кучево-дождевые. Подробнее классификацию облаков см. в Атласе облаков (PDF).
T - Температура воздуха - температура, измеренная на высоте 2 м над землей.
Td - Температура точки росы - температура, при понижении до которой содержащийся в воздухе водяной пар достигнет насыщения.
f - Относительная влажность воздуха - влажноcть воздуха, измеренная на высоте 2 м над землей.
Te - Эффективная температура - температура, которую ощущает одетый по сезону человек в тени. Характеристика душности погоды. При расчете учитывается влияние влажности воздуха и скорости ветра на теплоощущения человека.
Tes - Эффективная температура на солнце - температура, которую ощущает человек, с поправкой на солнечный нагрев. Характеристика знойности погоды. Зависит от высоты солнца над горизонтом, облачности и скорости ветра. Ночью, в пасмурную погоду, а также при ветре 12 м/с и более поправка равна нулю.
P - Атмосферное давление - приведенное к уровню моря атмосферное давление.
Po - Атмосферное давление - измеренное на уровне метеостанции атмосферное давление.
Tmin - Минимальная температура - минимум температуры воздуха на высоте 2 м над землей.
Tmax - Максимальная температура - максимум температуры воздуха на высоте 2 м над землей.
R - Количество осадков - Количество выпавших осадков за период времени, мм. При наведении курсора мыши на число - период времени, за который выпало указанное количество осадков.
R24 - Количество осадков - Количество выпавших осадков за 24 часа, мм.
S - Снежный покров - Высота снежного покрова, см. При наведении курсора мыши на число - состояние снежного покрова и степень покрытия местности в баллах.